Temperature
16 15 15 15 15 15 14 14 14 14 14 14 14 14 14 14 14 14 14 14 14 14 14 14 14 14 14 14 14 14 14 14 14 14 14 14 14 14 14 14 14 14 14
15 15 15 15 14 14 14 14 14 14 14 14 14 14 14 14 14 14 14 14 13 13 13 13 13 13 13 13 13 13 13 13 14 14 14 14 13 13 13 13 13 13 13
15 15 15 14 14 14 14 14 14 14 14 13 13 13 14 14 14 14 13 13 13 13 13 13 13 13 13 13 13 13 13 13 13 13 13 13 13 13 13 13 13 13 13
15 15 14 14 14 14 14 14 14 14 13 13 13 13 13 13 13 13 13 13 13 13 13 13 13 13 13 13 13 12 12 12 13 13 13 13 13 13 13 13 13 13 13
14 14 14 14 14 14 13 13 13 13 13 13 13 13 13 13 13 13 13 13 13 13 13 13 13 12 13 12 12 12 12 12 12 12 13 12 12 12 12 12 12 12 13
14 14 14 14 13 13 13 13 13 13 13 13 13 13 13 13 13 13 13 13 13 13 13 12 12 12 12 12 12 12 12 11 12 12 12 12 12 12 12 12 12 12 12
14 14 14 14 13 13 13 13 13 13 13 13 13 13 13 13 13 13 13 12 12 12 12 12 12 12 12 12 12 12 12 11 11 11 11 11 11 11 11 11 11 12 12
13 13 13 13 13 13 13 13 13 13 13 13 12 12 12 12 13 13 13 12 12 12 12 12 12 12 12 11 11 11 11 11 11 11 11 11 11 11 11 11 11 11 11
13 13 13 13 13 13 13 12 12 12 12 12 12 12 12 12 12 12 12 12 12 12 11 11 11 11 11 11 11 11 11 11 11 11 11 11 11 11 11 11 11 11 11
13 13 13 13 13 13 12 12 12 12 12 12 12 12 12 12 12 12 12 12 11 11 11 11 11 11 11 11 11 10 10 10 10 11 11 11 11 11 11 11 11 11 11
13 12 12 12 12 12 12 12 12 12 12 11 11 11 11 11 12 12 12 11 11 11 11 11 11 11 11 11 11 10 10 10 10 10 11 11 10 10 10 10 11 11 11
12 12 12 12 12 12 12 11 11 11 11 11 11 11 11 11 11 12 11 11 11 11 11 11 11 11 11 11 11 11 10 10 10 11 11 11 11 10 10 10 10 10 10
12 12 12 12 11 11 11 11 11 11 12 12 12 12 11 11 11 11 11 11 11 10 10 10 11 11 11 10 11 10 10 10 10 10 10 10 10 10 10 10 10 10 10
12 11 11 11 11 11 11 11 11 12 12 12 12 12 11 11 11 11 11 11 10 10 10 10 10 10 10 10 10 10 10 10 10 10 10 10 10 10 10 10 10 10 10
11 11 11 11 11 11 11 11 11 11 11 11 11 11 11 11 11 11 10 10 10 10 10 10 10 10 11 10 10 10 10 10 10 10 10 10 10 10 10 10 10 10 10
11 11 11 11 11 11 11 11 11 11 11 11 11 11 11 11 10 10 10 10 10 10 10 10 10 10 10 10 10 10 10 10 10 10 10 10 10 10 10 10 10 10 10
11 11 11 11 11 11 11 11 11 11 11 11 11 11 10 10 10 10 10 10 10 10 10 10 10 10 10 10 10 10 10 10 10 10 10 10 10 10 10 10 10 10 10
10 11 11 11 11 11 11 11 11 11 11 11 10 10 10 10 10 10 10 10 10 10 10 10 10 10 10 10 10 10 10 10 9 9 9 9 9 10 10 10 10 9 9
10 10 10 11 11 11 11 11 11 11 11 11 10 10 10 10 10 9 9 9 10 10 10 10 10 9 9 9 9 9 9 9 9 9 9 9 9 9 9 9 9 9 9
10 10 10 10 11 11 11 11 11 11 11 11 11 10 10 10 10 10 9 9 9 9 9 9 9 9 9 9 9 9 9 9 9 9 9 9 9 9 9 9 9 9 9
10 10 10 10 11 11 11 11 11 11 11 11 10 10 10 10 10 10 10 9 9 9 9 9 9 9 9 9 9 9 8 8 8 8 8 8 8 8 9 9 9 9 9
10 10 10 10 10 10 10 10 10 10 10 10 10 10 9 9 9 9 9 9 9 9 8 8 8 8 8 8 8 8 8 8 8 8 8 8 8 8 8 8 8 8 8
10 10 10 10 10 10 10 10 10 10 10 10 10 9 9 9 9 9 9 9 8 8 8 8 8 8 8 8 7 8 8 8 7 7 7 8 8 8 8 8 8 8 8
10 10 10 10 9 10 10 9 9 9 9 9 9 9 9 8 8 8 8 8 8 8 8 8 7 7 7 7 7 7 7 7 7 7 7 7 7 7 7 8 8 8 8
9 9 9 9 9 9 9 9 9 9 9 9 9 8 8 8 8 8 8 8 7 7 7 7 7 7 6 6 6 7 7 7 7 6 7 7 7 7 7 7 7 7 7
9 9 9 9 8 9 8 8 8 8 8 8 8 8 8 8 8 7 7 7 7 7 7 7 7 6 6 6 6 6 6 6 6 6 6 6 6 6 7 7 7 7 7
Wind_Speed
7 7 6 6 6 5 4 4 4 3 3 3 3 3 3 3 3 3 3 2 3 3 3 3 3 3 3 4 4 4 5 5 5 5 4 3 3 4 3 4 4 5 5
7 7 6 6 6 5 5 5 4 4 4 4 3 3 3 3 3 3 3 3 3 3 4 4 4 3 4 4 3 4 4 4 5 6 4 3 3 3 3 3 3 4 4
7 7 7 6 6 5 5 5 4 4 4 4 3 3 4 3 3 4 3 3 4 4 4 4 4 3 4 3 3 4 4 4 4 5 4 3 3 2 3 3 4 3 4
7 7 6 6 5 5 5 5 5 4 4 4 4 3 4 4 4 4 4 4 4 4 4 4 4 4 4 4 3 4 4 4 4 4 4 3 2 2 3 3 3 3 4
6 6 6 6 5 5 5 4 4 4 4 4 3 3 4 4 3 3 3 4 4 4 4 3 3 2 2 3 3 3 3 4 4 4 3 3 2 2 3 3 4 4 3
6 6 6 6 6 5 4 4 4 4 4 3 3 3 3 2 2 1 3 3 4 4 3 3 3 3 2 3 3 3 3 4 4 4 4 3 3 4 3 4 4 4 3
6 6 6 6 5 5 5 4 4 4 3 3 3 3 3 1 2 1 3 4 4 3 3 3 3 2 3 3 4 5 4 4 5 5 4 4 4 3 4 4 3 4 5
6 5 6 5 5 5 4 4 4 3 3 3 3 3 2 2 2 2 3 4 4 3 3 3 3 3 3 3 3 4 4 4 4 5 4 5 4 4 5 5 5 4 5
5 5 5 5 5 4 4 3 3 3 3 3 2 2 2 2 2 1 2 3 3 3 3 3 3 3 1 2 4 4 3 3 4 4 4 4 3 3 4 4 4 4 4
4 4 4 5 4 4 3 3 3 3 3 3 2 2 2 2 3 2 3 3 2 3 2 3 2 2 1 2 4 4 4 3 3 3 4 5 5 5 7 6 5 5 4
2 3 3 4 4 4 4 3 3 3 2 2 2 2 2 2 3 3 2 2 2 2 2 2 1 3 2 3 5 4 3 4 4 3 3 3 3 3 4 4 4 5 5
2 3 3 3 3 4 4 3 3 3 3 3 2 3 2 3 2 3 3 3 4 3 2 2 1 2 2 4 3 2 3 5 3 3 3 3 3 2 2 3 4 5 5
2 2 3 3 3 3 4 4 3 3 3 2 2 2 2 2 3 5 5 4 4 3 2 1 0 2 3 4 4 4 5 3 2 3 3 3 3 3 3 3 4 4 5
2 2 2 3 3 3 3 3 3 2 2 2 2 2 2 2 2 2 3 3 4 3 2 1 3 5 5 2 3 4 3 2 3 3 3 3 3 3 3 3 4 4 4
2 2 2 2 2 3 3 2 2 2 1 2 2 2 2 2 1 1 2 2 2 1 2 2 2 1 2 1 1 1 2 2 3 3 3 3 3 3 3 3 4 5 4
2 2 2 2 2 3 3 3 2 0 2 2 1 3 0 2 4 3 2 1 0 2 3 2 2 2 2 1 2 2 2 2 2 3 3 4 3 3 4 3 4 4 4
3 2 2 2 2 3 3 3 3 2 3 3 3 2 1 2 3 4 4 4 4 4 3 3 2 2 2 2 2 2 2 2 3 3 3 3 3 3 3 3 4 4 4
3 3 3 3 3 3 3 3 3 3 3 3 4 5 5 5 5 5 5 4 3 4 3 3 3 3 3 3 3 3 3 3 3 3 3 3 3 3 3 4 4 4 4
3 3 3 3 3 3 3 3 3 3 3 2 2 4 6 7 7 5 6 4 3 3 3 3 3 3 3 3 3 3 3 3 3 3 3 3 3 4 4 4 4 3 5
3 3 4 3 3 3 4 3 3 3 3 3 2 2 3 4 3 3 4 4 4 3 3 3 3 3 2 3 3 2 3 3 3 3 3 3 3 4 4 4 4 4 4
3 3 5 4 4 3 3 3 3 3 3 3 2 1 2 4 4 3 3 3 3 3 3 3 3 3 3 3 2 2 3 3 3 3 4 4 4 4 4 5 4 5 5
3 3 3 3 3 2 2 2 3 3 3 3 3 3 3 4 3 3 3 3 3 3 3 3 3 3 2 2 2 3 3 3 3 4 4 4 4 4 5 5 5 5 5
4 3 3 3 2 3 3 3 3 3 3 3 3 2 2 3 3 3 3 3 3 3 3 2 3 3 2 2 3 3 3 3 4 5 5 5 5 5 5 5 6 6 6
3 3 3 3 3 3 3 3 3 3 3 3 3 3 3 3 4 3 3 3 2 2 2 3 3 3 3 3 3 3 3 4 5 5 6 6 6 5 5 5 6 6 6
3 3 3 3 3 3 3 3 3 3 3 3 4 4 4 4 4 4 4 3 3 3 3 3 3 3 4 5 5 4 3 3 4 6 6 6 6 6 6 6 6 7 6
3 3 3 3 3 4 4 4 4 3 4 4 4 4 4 4 4 4 4 3 4 3 3 3 4 4 5 5 4 2 1 2 3 5 6 6 6 6 6 6 7 7 7
Wind_Direction
175 171 170 172 172 177 185 189 193 197 195 202 211 206 204 205 205 208 221 216 219 228 234 238 248 261 260 250 248 251 252 249 257 270 270 256 247 262 251 246 239 235 213
172 171 170 171 168 175 181 184 187 191 198 205 211 208 205 206 208 208 221 224 227 233 235 240 248 247 251 259 256 254 256 254 253 268 279 273 255 252 253 251 251 245 244
172 173 171 175 171 176 180 182 184 189 200 209 214 216 214 215 215 218 223 233 236 238 240 243 250 249 250 251 252 255 254 251 248 258 267 275 267 265 259 247 246 248 250
171 168 164 169 172 178 184 185 187 192 203 211 216 221 221 224 223 224 229 237 242 244 243 245 248 245 248 251 244 248 258 264 253 255 260 262 260 265 270 265 260 243 251
164 166 167 169 172 175 181 184 186 193 203 209 216 222 225 222 223 229 237 240 245 251 244 240 241 227 254 257 255 247 247 255 257 258 263 265 272 276 272 273 272 268 251
167 169 169 172 174 175 180 187 190 194 200 203 213 216 213 225 80 357 264 245 243 246 251 243 232 208 205 203 233 253 261 249 258 265 266 268 272 275 276 273 275 277 277
171 173 172 176 181 181 183 186 188 190 198 206 210 206 196 148 102 229 263 254 245 242 247 244 245 226 227 236 215 217 224 224 240 260 268 280 283 280 277 274 279 285 285
171 173 174 178 180 178 180 184 184 185 195 199 199 197 195 153 118 248 259 235 242 241 242 240 244 246 248 268 250 234 234 225 228 243 259 269 274 274 264 266 268 269 268
166 171 173 173 173 176 179 182 183 184 188 193 189 201 196 166 149 206 267 232 231 240 242 240 245 243 195 270 253 243 237 237 214 213 235 250 270 268 269 262 263 264 281
175 176 171 171 172 174 174 176 177 183 184 188 181 211 214 207 154 180 256 244 240 247 238 236 233 256 183 229 244 241 240 247 248 233 223 228 235 224 223 245 260 262 274
164 171 169 173 175 169 160 163 173 181 177 190 188 209 215 213 159 166 243 259 270 266 259 251 220 142 183 227 250 248 255 266 249 242 241 243 243 239 240 244 258 264 270
135 148 159 170 177 157 157 164 175 179 180 189 195 214 206 193 160 158 188 254 298 277 282 293 45 115 215 233 241 233 256 261 252 248 255 264 269 278 275 271 268 271 270
126 142 148 159 162 160 169 173 178 187 197 198 207 218 213 199 160 158 183 211 252 264 295 15 4 209 221 214 194 212 233 248 263 263 267 277 283 280 266 255 248 251 257
146 155 157 167 167 162 186 187 185 192 207 217 228 231 217 196 184 178 191 194 205 229 268 160 184 211 228 221 197 215 237 247 259 273 281 285 280 270 261 260 258 251 257
158 161 166 170 165 169 181 193 202 199 226 242 248 244 233 214 159 129 216 217 233 245 262 246 237 231 229 223 230 245 254 256 257 259 264 267 271 271 269 269 267 260 260
180 181 185 182 172 185 181 171 91 76 128 172 277 287 184 95 122 146 165 145 157 236 247 239 247 267 276 283 275 257 252 267 271 270 265 265 267 269 270 269 266 262 265
198 202 216 208 195 201 201 196 193 179 162 170 184 198 211 142 146 173 190 206 215 214 228 240 249 265 274 277 280 284 280 274 273 268 268 270 273 276 276 278 275 269 270
208 208 220 225 223 215 210 213 216 212 197 192 181 183 186 179 181 195 203 203 209 207 232 245 248 254 265 272 275 277 286 291 280 276 279 283 281 280 278 277 282 291 282
214 221 226 226 229 224 221 222 224 225 220 211 195 171 181 183 188 203 209 229 241 235 239 246 251 255 258 259 264 271 277 282 294 289 288 296 291 286 288 285 285 287 287
220 222 232 234 233 234 230 227 225 227 232 224 217 208 180 193 206 200 211 237 253 255 251 250 251 262 265 264 263 264 268 278 284 290 303 300 294 293 291 288 286 288 287
232 225 220 230 230 234 241 241 237 235 234 228 225 208 252 227 228 228 229 238 252 259 261 263 260 257 257 258 268 275 278 281 282 287 292 292 290 288 289 288 287 288 290
239 239 239 238 242 244 242 243 245 242 239 244 240 193 188 238 240 237 246 255 263 264 261 257 261 263 268 274 279 282 283 291 297 294 294 294 289 284 280 281 283 288 288
242 240 240 243 246 239 240 243 247 249 243 240 246 238 215 243 251 246 247 255 264 268 267 255 254 259 265 270 279 279 279 285 291 293 291 289 289 283 280 281 282 283 285
252 250 249 249 249 248 248 247 246 246 247 250 251 247 235 232 246 255 260 257 257 257 257 256 253 261 271 276 280 285 304 304 296 287 286 284 284 282 282 283 281 284 284
251 246 248 256 262 259 255 253 251 254 256 253 250 250 251 245 242 247 253 257 259 256 253 256 258 257 258 265 280 301 345 334 315 307 285 280 280 280 282 282 283 285 286
257 251 252 252 257 260 260 258 254 252 253 252 250 248 250 251 250 253 254 256 260 258 258 259 259 255 258 262 278 325 17 308 311 305 289 279 277 276 281 278 283 281 284
Height
1486 1488 1490 1492 1494 1496 1497 1498 1499 1501 1502 1503 1504 1505 1505 1506 1506 1507 1507 1507 1507 1507 1507 1507 1507 1507 1507 1508 1508 1509 1509 1509 1509 1509 1509 1508 1507 1507 1507 1507 1507 1507 1508
1484 1486 1488 1490 1492 1493 1495 1496 1497 1498 1500 1501 1502 1502 1503 1504 1504 1505 1505 1505 1505 1505 1505 1505 1505 1505 1504 1505 1505 1505 1506 1506 1506 1505 1505 1505 1504 1504 1503 1504 1504 1505 1505
1482 1484 1486 1488 1490 1491 1492 1494 1495 1496 1497 1499 1499 1500 1500 1501 1502 1502 1503 1503 1503 1503 1503 1503 1502 1502 1502 1501 1501 1502 1503 1503 1503 1502 1502 1502 1501 1501 1501 1501 1502 1501 1502
1481 1482 1484 1486 1488 1489 1491 1492 1492 1493 1495 1496 1497 1498 1498 1499 1500 1500 1501 1501 1500 1500 1500 1500 1499 1499 1499 1499 1499 1499 1499 1500 1500 1499 1499 1499 1499 1499 1499 1499 1499 1499 1499
1478 1480 1482 1484 1486 1487 1488 1489 1490 1491 1492 1493 1494 1495 1495 1496 1497 1497 1498 1498 1497 1497 1497 1497 1497 1497 1496 1496 1497 1496 1496 1497 1497 1497 1497 1497 1497 1496 1496 1497 1497 1496 1496
1477 1479 1481 1482 1484 1485 1486 1487 1488 1489 1490 1491 1492 1492 1493 1494 1494 1494 1495 1495 1495 1494 1494 1494 1494 1494 1493 1493 1493 1493 1494 1494 1494 1495 1495 1494 1494 1494 1494 1494 1494 1494 1493
1476 1477 1479 1481 1482 1483 1484 1485 1486 1486 1487 1488 1489 1490 1490 1491 1491 1492 1492 1492 1492 1491 1491 1491 1492 1492 1491 1491 1490 1490 1490 1490 1491 1491 1492 1491 1491 1491 1491 1491 1490 1490 1490
1474 1476 1477 1479 1480 1481 1482 1483 1484 1485 1485 1486 1487 1487 1488 1488 1488 1489 1489 1489 1489 1488 1489 1489 1489 1488 1489 1488 1488 1488 1488 1488 1488 1488 1488 1488 1489 1488 1488 1488 1487 1487 1487
1473 1474 1476 1477 1478 1479 1480 1481 1482 1483 1484 1484 1485 1486 1486 1486 1486 1486 1486 1487 1486 1486 1487 1486 1486 1486 1485 1485 1485 1485 1485 1485 1485 1485 1485 1485 1485 1485 1485 1485 1485 1485 1484
1472 1473 1474 1475 1476 1477 1478 1479 1480 1481 1482 1483 1483 1484 1484 1484 1484 1483 1484 1484 1484 1484 1484 1484 1483 1483 1483 1482 1483 1483 1482 1482 1483 1483 1483 1482 1482 1482 1482 1482 1483 1483 1482
1470 1471 1472 1473 1474 1475 1476 1477 1478 1480 1480 1481 1481 1482 1482 1482 1482 1481 1481 1482 1482 1482 1482 1482 1482 1480 1480 1480 1480 1480 1480 1480 1480 1481 1481 1481 1480 1480 1480 1480 1479 1479 1479
1469 1470 1471 1472 1474 1474 1475 1476 1477 1478 1479 1480 1480 1480 1481 1480 1480 1479 1479 1479 1480 1480 1480 1480 1479 1478 1478 1478 1478 1477 1478 1478 1479 1479 1479 1479 1478 1478 1477 1477 1476 1475 1475
1468 1469 1470 1471 1472 1473 1474 1475 1476 1477 1478 1478 1479 1479 1479 1479 1478 1477 1478 1478 1478 1478 1478 1477 1477 1476 1476 1476 1476 1476 1476 1477 1477 1477 1477 1476 1476 1475 1474 1473 1473 1472 1472
1467 1468 1469 1470 1471 1472 1473 1474 1475 1475 1476 1476 1477 1477 1477 1477 1476 1476 1476 1476 1476 1476 1476 1476 1475 1475 1475 1475 1474 1475 1475 1475 1475 1475 1474 1474 1473 1472 1472 1471 1471 1470 1470
1467 1467 1468 1469 1470 1470 1471 1472 1473 1473 1474 1474 1475 1475 1475 1475 1474 1474 1474 1474 1475 1475 1474 1475 1475 1475 1474 1474 1474 1473 1473 1473 1473 1473 1472 1472 1471 1470 1470 1469 1468 1468 1467
1465 1466 1467 1468 1468 1469 1469 1470 1470 1471 1471 1471 1472 1473 1473 1473 1473 1472 1473 1473 1473 1473 1473 1473 1473 1473 1473 1473 1472 1472 1471 1471 1471 1470 1470 1470 1469 1468 1467 1466 1466 1465 1465
1464 1465 1466 1467 1467 1468 1468 1468 1468 1469 1469 1469 1470 1470 1470 1470 1471 1471 1471 1471 1471 1471 1471 1472 1472 1471 1471 1471 1470 1470 1469 1469 1468 1468 1468 1467 1466 1466 1465 1464 1463 1463 1462
1463 1464 1464 1465 1466 1466 1466 1466 1467 1467 1467 1467 1467 1467 1468 1468 1469 1469 1469 1469 1469 1469 1470 1470 1470 1469 1469 1469 1468 1468 1467 1467 1466 1466 1465 1465 1464 1463 1463 1462 1461 1460 1459
1462 1463 1463 1464 1464 1464 1464 1465 1465 1465 1465 1465 1466 1466 1466 1466 1467 1467 1467 1468 1468 1467 1468 1468 1468 1468 1467 1467 1466 1465 1465 1464 1464 1463 1463 1462 1461 1461 1460 1460 1459 1457 1457
1460 1460 1461 1462 1462 1462 1462 1463 1462 1463 1463 1463 1464 1464 1464 1464 1465 1465 1465 1465 1465 1466 1465 1465 1465 1465 1465 1464 1464 1463 1462 1462 1461 1460 1460 1459 1459 1458 1458 1457 1456 1455 1454
1458 1458 1459 1459 1460 1460 1460 1460 1461 1460 1460 1461 1461 1461 1461 1462 1462 1463 1463 1463 1463 1463 1462 1462 1462 1462 1461 1461 1461 1461 1460 1460 1459 1458 1458 1457 1456 1456 1455 1455 1454 1453 1452
1456 1456 1456 1457 1457 1457 1458 1458 1458 1458 1458 1458 1459 1459 1458 1459 1460 1460 1460 1460 1460 1460 1459 1459 1459 1459 1458 1458 1458 1458 1457 1457 1456 1455 1455 1454 1454 1453 1453 1452 1451 1450 1449
1454 1454 1454 1454 1454 1454 1455 1455 1455 1455 1456 1456 1456 1456 1456 1456 1457 1457 1457 1457 1456 1456 1456 1455 1455 1456 1455 1455 1455 1455 1454 1453 1452 1452 1451 1451 1450 1450 1449 1449 1448 1447 1446
1451 1451 1451 1451 1452 1452 1452 1452 1452 1452 1452 1452 1453 1453 1453 1453 1453 1454 1454 1454 1453 1453 1452 1452 1452 1452 1452 1452 1452 1451 1450 1450 1449 1448 1448 1447 1447 1447 1446 1446 1445 1444 1443
1449 1449 1449 1449 1449 1449 1449 1449 1449 1449 1449 1449 1449 1450 1450 1450 1450 1450 1450 1450 1450 1449 1449 1449 1449 1449 1448 1448 1448 1448 1446 1446 1445 1445 1444 1444 1444 1443 1443 1442 1442 1441 1440
1446 1446 1446 1446 1446 1446 1446 1446 1446 1446 1446 1446 1446 1446 1446 1446 1446 1446 1447 1447 1446 1446 1445 1445 1445 1445 1444 1444 1444 1443 1442 1442 1441 1441 1441 1440 1440 1440 1439 1439 1438 1438 1437